EW3500 Weather Reports


Display with metric or nautical units.
time (UTC)temp
F
wind
direction
speed
MPH
gust
MPH
rain 1hr
in
rain 24hr
in
rain mn
in
humidity
%
barometer
mb
20210621193332 90 287 5.0 12.0 0.00 0.00 0.00 23 1020.6
20210621193042 90 284 5.0 9.0 0.00 0.00 0.00 23 1020.6
20210621192855 89 261 2.0 9.0 0.00 0.00 0.00 23 1020.5
20210621192605 89 241 6.0 13.0 0.00 0.00 0.00 22 1020.5
20210621192523 89 241 6.0 13.0 0.00 0.00 0.00 22 1020.5
20210621192332 89 207 5.0 13.0 0.00 0.00 0.00 23 1020.5
20210621192107 89 263 6.0 17.0 0.00 0.00 0.00 23 1020.5
20210621191834 89 234 6.0 17.0 0.00 0.00 0.00 22 1020.5
20210621191527 89 250 6.0 17.0 0.00 0.00 0.00 23 1020.6
20210621191337 89 240 8.0 17.0 0.00 0.00 0.00 23 1020.6
20210621191040 89 254 6.0 12.0 0.00 0.00 0.00 22 1020.6
20210621190853 89 248 6.0 12.0 0.00 0.00 0.00 22 1020.6
20210621190542 89 238 4.0 12.0 0.00 0.00 0.00 23 1020.6
20210621190351 89 230 6.0 13.0 0.00 0.00 0.00 22 1020.6
20210621190044 89 248 9.0 15.0 0.00 0.00 0.00 22 1020.5
20210621185833 89 254 8.0 15.0 0.00 0.00 0.00 22 1020.5
20210621185526 89 268 8.0 15.0 0.00 0.00 0.00 22 1020.5
20210621185336 89 237 6.0 15.0 0.00 0.00 0.00 22 1020.5
20210621185024 89 229 5.0 13.0 0.00 0.00 0.00 22 1020.5
20210621184818 89 260 4.0 14.0 0.00 0.00 0.00 22 1020.5
20210621184528 89 175 2.0 14.0 0.00 0.00 0.00 23 1020.6
20210621184340 89 223 7.0 14.0 0.00 0.00 0.00 22 1020.5
20210621184020 89 250 9.0 14.0 0.00 0.00 0.00 22 1020.4
20210621183829 89 221 5.0 17.0 0.00 0.00 0.00 21 1020.4
20210621183603 89 242 7.0 17.0 0.00 0.00 0.00 22 1020.5
20210621183331 89 255 5.0 17.0 0.00 0.00 0.00 22 1020.5
20210621183024 89 215 8.0 17.0 0.00 0.00 0.00 22 1020.5
20210621182833 89 205 6.0 13.0 0.00 0.00 0.00 22 1020.4
20210621182520 89 200 7.0 13.0 0.00 0.00 0.00 22 1020.5
20210621182415 89 190 6.0 13.0 0.00 0.00 0.00 22 1020.5
20210621182333 89 190 6.0 13.0 0.00 0.00 0.00 22 1020.5
20210621182021 89 226 9.0 13.0 0.00 0.00 0.00 21 1020.5
20210621181852 89 235 5.0 10.0 0.00 0.00 0.00 22 1020.5
20210621181523 89 254 6.0 10.0 0.00 0.00 0.00 21 1020.4
20210621181333 89 236 4.0 10.0 0.00 0.00 0.00 21 1020.4
20210621181101 89 218 2.0 10.0 0.00 0.00 0.00 22 1020.4
20210621181019 89 218 2.0 10.0 0.00 0.00 0.00 22 1020.4
20210621180849 89 157 6.0 10.0 0.00 0.00 0.00 22 1020.5
20210621180600 88 241 2.0 13.0 0.00 0.00 0.00 22 1020.4
20210621180518 88 241 2.0 13.0 0.00 0.00 0.00 22 1020.4
20210621180332 88 254 4.0 13.0 0.00 0.00 0.00 21 1020.4
20210621180102 88 253 5.0 13.0 0.00 0.00 0.00 20 1020.6
20210621175850 88 242 8.0 13.0 0.00 0.00 0.00 21 1020.6
20210621175604 88 202 6.0 12.0 0.00 0.00 0.00 21 1020.5
20210621175522 88 202 6.0 12.0 0.00 0.00 0.00 21 1020.5
20210621175414 88 219 5.0 12.0 0.00 0.00 0.00 22 1020.5
20210621175332 88 219 5.0 12.0 0.00 0.00 0.00 22 1020.5
20210621175106 88 238 7.0 12.0 0.00 0.00 0.00 21 1020.5
20210621175024 88 238 7.0 12.0 0.00 0.00 0.00 21 1020.5
20210621174834 88 252 7.0 12.0 0.00 0.00 0.00 21 1020.5
20210621174605 88 198 6.0 12.0 0.00 0.00 0.00 21 1020.5
20210621174522 88 198 6.0 12.0 0.00 0.00 0.00 21 1020.5
20210621174356 88 242 7.0 12.0 0.00 0.00 0.00 21 1020.5
20210621174059 88 196 5.0 12.0 0.00 0.00 0.00 21 1020.4
20210621174016 88 196 5.0 12.0 0.00 0.00 0.00 21 1020.4
20210621173825 88 236 6.0 13.0 0.00 0.00 0.00 21 1020.4
20210621173537 88 168 4.0 13.0 0.00 0.00 0.00 20 1020.4
20210621173408 88 223 8.0 13.0 0.00 0.00 0.00 19 1020.4
20210621173326 88 223 8.0 13.0 0.00 0.00 0.00 19 1020.4
20210621173039 88 227 8.0 13.0 0.00 0.00 0.00 20 1020.3
20210621172909 88 244 5.0 13.0 0.00 0.00 0.00 20 1020.2
20210621172827 88 244 5.0 13.0 0.00 0.00 0.00 20 1020.2
20210621172519 88 244 8.0 13.0 0.00 0.00 0.00 20 1020.3
20210621172329 88 249 4.0 12.0 0.00 0.00 0.00 20 1020.2
20210621172100 88 212 6.0 12.0 0.00 0.00 0.00 20 1020.2
20210621172018 88 212 6.0 12.0 0.00 0.00 0.00 20 1020.2
20210621171831 88 222 8.0 12.0 0.00 0.00 0.00 20 1020.1
20210621171520 88 206 5.0 12.0 0.00 0.00 0.00 20 1020.1
20210621171328 88 246 9.0 17.0 0.00 0.00 0.00 20 1020.1
20210621171135 88 207 4.0 17.0 0.00 0.00 0.00 21 1020.1
20210621170826 88 236 3.0 17.0 0.00 0.00 0.00 21 1020.1
20210621170535 88 200 7.0 17.0 0.00 0.00 0.00 20 1020.1
20210621170348 87 218 4.0 12.0 0.00 0.00 0.00 21 1020.1
20210621170016 87 245 5.0 10.0 0.00 0.00 0.00 20 1020.1
20210621165847 87 244 5.0 10.0 0.00 0.00 0.00 20 1019.9
20210621165539 87 208 7.0 10.0 0.00 0.00 0.00 19 1020.0
20210621165349 87 262 3.0 10.0 0.00 0.00 0.00 19 1019.9
20210621165040 87 248 3.0 9.0 0.00 0.00 0.00 19 1019.9
20210621164850 87 252 5.0 9.0 0.00 0.00 0.00 19 1019.9
20210621164543 87 244 3.0 7.0 0.00 0.00 0.00 19 1019.8
20210621164332 87 239 3.0 7.0 0.00 0.00 0.00 19 1019.8
20210621164055 87 277 6.0 7.0 0.00 0.00 0.00 19 1019.9
20210621163945 87 245 2.0 6.0 0.00 0.00 0.00 19 1019.8
20210621163526 87 257 2.0 4.0 0.00 0.00 0.00 22 1019.8
20210621163316 87 226 1.0 9.0 0.00 0.00 0.00 22 1019.7
20210621163049 86 279 2.0 9.0 0.00 0.00 0.00 21 1019.8
20210621162817 86 265 2.0 9.0 0.00 0.00 0.00 21 1019.7
20210621162608 86 265 4.0 9.0 0.00 0.00 0.00 21 1019.7
20210621162526 86 265 4.0 9.0 0.00 0.00 0.00 21 1019.7
20210621162320 86 250 4.0 9.0 0.00 0.00 0.00 21 1019.7
20210621162109 86 263 2.0 9.0 0.00 0.00 0.00 22 1019.7
20210621162027 86 263 2.0 9.0 0.00 0.00 0.00 22 1019.7
20210621161836 86 263 2.0 9.0 0.00 0.00 0.00 22 1019.7
20210621161528 86 290 1.0 7.0 0.00 0.00 0.00 22 1019.7
20210621161317 86 290 2.0 7.0 0.00 0.00 0.00 22 1019.7
20210621161106 86 336 4.0 7.0 0.00 0.00 0.00 21 1019.7
20210621160855 86 300 3.0 7.0 0.00 0.00 0.00 22 1019.7
20210621160605 86 330 3.0 7.0 0.00 0.00 0.00 22 1019.7
20210621160523 86 330 3.0 7.0 0.00 0.00 0.00 22 1019.7
20210621160337 86 294 2.0 7.0 0.00 0.00 0.00 22 1019.7
20210621160025 85 341 2.0 7.0 0.00 0.00 0.00 22 1019.6
20210621155819 85 343 3.0 7.0 0.00 0.00 0.00 22 1019.6
20210621155609 85 323 3.0 7.0 0.00 0.00 0.00 22 1019.6
20210621155527 85 323 3.0 7.0 0.00 0.00 0.00 22 1019.6
20210621155359 85 322 4.0 7.0 0.00 0.00 0.00 22 1019.6
20210621155316 85 322 4.0 7.0 0.00 0.00 0.00 22 1019.6
20210621155112 85 326 4.0 7.0 0.00 0.00 0.00 22 1019.5
20210621155030 85 326 4.0 7.0 0.00 0.00 0.00 22 1019.5
20210621154818 85 360 4.0 7.0 0.00 0.00 0.00 22 1019.5
20210621154532 85 337 4.0 6.0 0.00 0.00 0.00 24 1019.6
20210621154342 84 328 3.0 6.0 0.00 0.00 0.00 23 1019.5
20210621154022 84 339 3.0 6.0 0.00 0.00 0.00 23 1019.6
20210621153834 84 345 4.0 6.0 0.00 0.00 0.00 22 1019.5
20210621153523 84 331 3.0 6.0 0.00 0.00 0.00 23 1019.5
20210621153331 84 331 4.0 6.0 0.00 0.00 0.00 23 1019.5
20210621153023 83 329 2.0 6.0 0.00 0.00 0.00 23 1019.4
20210621152831 83 333 2.0 6.0 0.00 0.00 0.00 23 1019.5
20210621152525 83 325 2.0 6.0 0.00 0.00 0.00 24 1019.5
20210621152334 83 325 2.0 6.0 0.00 0.00 0.00 24 1019.5
20210621152042 82 331 2.0 5.0 0.00 0.00 0.00 24 1019.4
20210621151835 82 331 2.0 5.0 0.00 0.00 0.00 25 1019.4
20210621151522 82 331 3.0 5.0 0.00 0.00 0.00 25 1019.4
20210621151332 81 331 3.0 6.0 0.00 0.00 0.00 26 1019.5
20210621151102 81 326 3.0 6.0 0.00 0.00 0.00 26 1019.4
20210621151019 81 326 3.0 6.0 0.00 0.00 0.00 26 1019.4
20210621150829 81 327 3.0 6.0 0.00 0.00 0.00 27 1019.3
20210621150542 80 325 4.0 6.0 0.00 0.00 0.00 26 1019.5
20210621150413 80 325 1.0 5.0 0.00 0.00 0.00 27 1019.4
20210621150332 80 325 1.0 5.0 0.00 0.00 0.00 27 1019.4
20210621150020 79 325 2.0 4.0 0.00 0.00 0.00 27 1019.5
20210621145832 79 325 3.0 4.0 0.00 0.00 0.00 27 1019.4
20210621145542 79 318 3.0 4.0 0.00 0.00 0.00 27 1019.5
20210621145331 78 317 2.0 6.0 0.00 0.00 0.00 27 1019.5
20210621145023 77 307 1.0 6.0 0.00 0.00 0.00 28 1019.5
20210621144833 77 307 1.0 6.0 0.00 0.00 0.00 28 1019.5
20210621144525 76 307 2.0 6.0 0.00 0.00 0.00 28 1019.5
20210621144335 76 330 1.0 5.0 0.00 0.00 0.00 30 1019.5
20210621144021 75 329 2.0 5.0 0.00 0.00 0.00 29 1019.5
20210621143911 74 328 3.0 5.0 0.00 0.00 0.00 30 1019.5
20210621143519 73 310 1.0 5.0 0.00 0.00 0.00 31 1019.5
20210621143352 72 310 1.0 2.0 0.00 0.00 0.00 32 1019.6
20210621143020 71 310 0.0 2.0 0.00 0.00 0.00 32 1019.5
20210621142850 70 310 0.0 2.0 0.00 0.00 0.00 32 1019.5
20210621142543 69 310 0.0 2.0 0.00 0.00 0.00 33 1019.5
20210621142352 69 310 0.0 2.0 0.00 0.00 0.00 33 1019.5
20210621142024 68 311 0.0 2.0 0.00 0.00 0.00 34 1019.4
20210621141853 67 279 0.0 0.0 0.00 0.00 0.00 34 1019.4
20210621141603 66 279 0.0 0.0 0.00 0.00 0.00 36 1019.5
20210621141521 66 279 0.0 0.0 0.00 0.00 0.00 36 1019.5
20210621141355 66 279 0.0 0.0 0.00 0.00 0.00 37 1019.4
20210621141057 65 279 0.0 0.0 0.00 0.00 0.00 39 1019.4
20210621140824 64 279 0.0 0.0 0.00 0.00 0.00 39 1019.4
20210621140517 64 279 0.0 0.0 0.00 0.00 0.00 39 1019.4
20210621140327 64 279 0.0 0.0 0.00 0.00 0.00 39 1019.4
20210621140041 63 279 0.0 0.0 0.00 0.00 0.00 40 1019.4
20210621135850 63 279 0.0 0.0 0.00 0.00 0.00 41 1019.4
20210621135519 62 279 0.0 0.0 0.00 0.00 0.00 41 1019.4
20210621135332 62 279 0.0 0.0 0.00 0.00 0.00 41 1019.4
20210621135103 62 279 0.0 0.0 0.00 0.00 0.00 42 1019.3
20210621135020 62 279 0.0 0.0 0.00 0.00 0.00 42 1019.3
20210621134829 61 279 0.0 0.0 0.00 0.00 0.00 42 1019.3
20210621134523 61 279 0.0 0.0 0.00 0.00 0.00 41 1019.3
20210621134352 61 279 0.0 0.0 0.00 0.00 0.00 41 1019.2
20210621134018 61 279 0.0 0.0 0.00 0.00 0.00 41 1019.3
20210621133847 60 279 0.0 0.0 0.00 0.00 0.00 42 1019.3
20210621133520 60 279 0.0 0.0 0.00 0.00 0.00 41 1019.3
20210621133329 60 279 0.0 0.0 0.00 0.00 0.00 41 1019.2
20210621133018 60 279 0.0 0.0 0.00 0.00 0.00 41 1019.2
20210621132831 60 279 0.0 0.0 0.00 0.00 0.00 41 1019.2
20210621132601 60 279 0.0 0.0 0.00 0.00 0.00 40 1019.2
20210621132411 60 279 0.0 0.0 0.00 0.00 0.00 40 1019.2
20210621132328 60 279 0.0 0.0 0.00 0.00 0.00 40 1019.2
20210621132021 60 279 0.0 0.0 0.00 0.00 0.00 40 1019.2
20210621131830 60 279 0.0 0.0 0.00 0.00 0.00 40 1019.2
20210621131605 60 279 0.0 0.0 0.00 0.00 0.00 39 1019.2
20210621131522 60 279 0.0 0.0 0.00 0.00 0.00 39 1019.2
20210621131352 60 279 0.0 0.0 0.00 0.00 0.00 39 1019.1
20210621131114 60 279 0.0 0.0 0.00 0.00 0.00 39 1019.0
20210621130846 60 279 0.0 0.0 0.00 0.00 0.00 39 1019.0
20210621130556 60 279 0.0 0.0 0.00 0.00 0.00 39 1019.0
20210621130344 60 279 0.0 0.0 0.00 0.00 0.00 39 1018.9
20210621130037 61 279 0.0 0.0 0.00 0.00 0.00 39 1018.9
20210621125826 61 279 0.0 0.0 0.00 0.00 0.00 38 1019.0
20210621125519 61 279 0.0 0.0 0.00 0.00 0.00 38 1018.9
20210621125327 61 279 0.0 0.0 0.00 0.00 0.00 38 1018.8
20210621125038 61 279 0.0 0.0 0.00 0.00 0.00 38 1018.9
20210621124831 61 279 0.0 0.0 0.00 0.00 0.00 38 1018.8
20210621124519 61 279 0.0 0.0 0.00 0.00 0.00 38 1018.8
20210621124412 61 279 0.0 0.0 0.00 0.00 0.00 38 1018.8
20210621124329 61 279 0.0 0.0 0.00 0.00 0.00 38 1018.8
20210621124035 62 279 0.0 0.0 0.00 0.00 0.00 37 1018.8
20210621123844 62 279 0.0 0.0 0.00 0.00 0.00 37 1018.8
20210621123537 62 279 0.0 0.0 0.00 0.00 0.00 37 1018.8
20210621123346 62 279 0.0 0.0 0.00 0.00 0.00 37 1018.8
20210621123018 62 279 0.0 0.0 0.00 0.00 0.00 37 1018.8
20210621122910 62 279 0.0 0.0 0.00 0.00 0.00 36 1018.8
20210621122827 62 279 0.0 0.0 0.00 0.00 0.00 36 1018.8
20210621122537 63 279 0.0 0.0 0.00 0.00 0.00 36 1018.8
20210621122411 63 279 0.0 0.0 0.00 0.00 0.00 36 1018.7
20210621122018 63 279 0.0 0.0 0.00 0.00 0.00 36 1018.7
20210621121909 63 279 0.0 0.0 0.00 0.00 0.00 36 1018.6
20210621121827 63 279 0.0 0.0 0.00 0.00 0.00 36 1018.6
20210621121542 63 279 0.0 0.0 0.00 0.00 0.00 36 1018.6
20210621121330 64 279 0.0 0.0 0.00 0.00 0.00 35 1018.6
20210621121057 64 279 0.0 0.0 0.00 0.00 0.00 35 1018.6
20210621120825 64 279 0.0 4.0 0.00 0.00 0.00 35 1018.6
20210621120532 64 279 0.0 4.0 0.00 0.00 0.00 35 1018.6
20210621120407 64 279 0.0 4.0 0.00 0.00 0.00 35 1018.6
20210621120325 64 279 0.0 4.0 0.00 0.00 0.00 35 1018.6
20210621120116 64 279 1.0 4.0 0.00 0.00 0.00 35 1018.6
20210621120034 64 279 1.0 4.0 0.00 0.00 0.00 35 1018.6
20210621115844 64 283 0.0 1.0 0.00 0.00 0.00 35 1018.6
20210621115535 64 283 0.0 2.0 0.00 0.00 0.00 35 1018.6
20210621115407 64 283 0.0 3.0 0.00 0.00 0.00 35 1018.5
20210621115324 64 283 0.0 3.0 0.00 0.00 0.00 35 1018.5
20210621115016 65 283 0.0 3.0 0.00 0.00 0.00 35 1018.5
20210621114825 65 283 1.0 3.0 0.00 0.00 0.00 35 1018.5
20210621114535 65 283 1.0 3.0 0.00 0.00 0.00 35 1018.5
20210621114328 65 283 0.0 3.0 0.00 0.00 0.00 35 1018.5
20210621114051 65 283 1.0 3.0 0.00 0.00 0.00 34 1018.5
20210621113840 65 283 1.0 3.0 0.00 0.00 0.00 34 1018.4
20210621113614 65 283 0.0 2.0 0.00 0.00 0.00 34 1018.3
20210621113531 65 283 0.0 2.0 0.00 0.00 0.00 34 1018.3
20210621113403 65 283 1.0 2.0 0.00 0.00 0.00 34 1018.3
20210621113320 65 283 1.0 2.0 0.00 0.00 0.00 34 1018.3
20210621113034 65 283 1.0 2.0 0.00 0.00 0.00 34 1018.4
20210621112904 65 283 0.0 0.0 0.00 0.00 0.00 34 1018.3
20210621112822 65 283 0.0 0.0 0.00 0.00 0.00 34 1018.3
20210621112551 65 283 0.0 0.0 0.00 0.00 0.00 34 1018.3
20210621112406 66 283 0.0 0.0 0.00 0.00 0.00 33 1018.3
20210621112324 66 283 0.0 0.0 0.00 0.00 0.00 33 1018.3
20210621112032 66 283 0.0 0.0 0.00 0.00 0.00 33 1018.3
20210621111845 66 283 0.0 0.0 0.00 0.00 0.00 33 1018.3
20210621111614 67 283 0.0 2.0 0.00 0.00 0.00 33 1018.3
20210621111532 67 283 0.0 2.0 0.00 0.00 0.00 33 1018.3
20210621111404 67 283 0.0 2.0 0.00 0.00 0.00 32 1018.3
20210621111322 67 283 0.0 2.0 0.00 0.00 0.00 32 1018.3
20210621111028 67 283 0.0 2.0 0.00 0.00 0.00 32 1018.3
20210621110817 67 283 0.0 2.0 0.00 0.00 0.00 32 1018.3
20210621110528 67 283 1.0 2.0 0.00 0.00 0.00 32 1018.2
20210621110400 68 283 0.0 2.0 0.00 0.00 0.00 32 1018.3
20210621110318 68 283 0.0 2.0 0.00 0.00 0.00 32 1018.3
20210621110048 68 283 0.0 3.0 0.00 0.00 0.00 32 1018.2
20210621105820 68 283 0.0 3.0 0.00 0.00 0.00 31 1018.2
20210621105528 68 283 1.0 3.0 0.00 0.00 0.00 31 1018.2
20210621105338 68 283 1.0 3.0 0.00 0.00 0.00 31 1018.1
20210621105113 69 283 1.0 3.0 0.00 0.00 0.00 31 1018.2
20210621105031 69 283 1.0 3.0 0.00 0.00 0.00 31 1018.2
20210621104903 69 283 1.0 3.0 0.00 0.00 0.00 31 1018.1
20210621104820 69 283 1.0 3.0 0.00 0.00 0.00 31 1018.1
20210621104533 69 283 2.0 3.0 0.00 0.00 0.00 31 1018.2
20210621104405 69 283 1.0 3.0 0.00 0.00 0.00 31 1018.2
20210621104323 69 283 1.0 3.0 0.00 0.00 0.00 31 1018.2
20210621104107 69 283 0.0 3.0 0.00 0.00 0.00 31 1018.2
20210621104025 69 283 0.0 3.0 0.00 0.00 0.00 31 1018.2
20210621103818 69 283 2.0 3.0 0.00 0.00 0.00 31 1018.3
20210621103608 69 283 1.0 3.0 0.00 0.00 0.00 31 1018.3
20210621103418 69 283 1.0 3.0 0.00 0.00 0.00 31 1018.3
20210621103028 69 283 2.0 3.0 0.00 0.00 0.00 31 1018.3
20210621102837 69 283 2.0 3.0 0.00 0.00 0.00 31 1018.3
20210621102529 69 283 2.0 3.0 0.00 0.00 0.00 31 1017.4
20210621102317 69 283 1.0 4.0 0.00 0.00 0.00 31 1017.3
20210621102046 69 283 1.0 4.0 0.00 0.00 0.00 31 1017.4
20210621101819 69 283 2.0 4.0 0.00 0.00 0.00 31 1017.4
20210621101549 69 283 2.0 4.0 0.00 0.00 0.00 31 1017.3
20210621101403 69 283 2.0 4.0 0.00 0.00 0.00 31 1017.4
20210621101321 69 283 2.0 4.0 0.00 0.00 0.00 31 1017.4
20210621101105 69 283 2.0 4.0 0.00 0.00 0.00 31 1017.4
20210621100832 69 283 2.0 4.0 0.00 0.00 0.00 31 1017.4
20210621100607 69 283 3.0 4.0 0.00 0.00 0.00 31 1017.4
20210621100525 69 283 3.0 4.0 0.00 0.00 0.00 31 1017.4
20210621100416 69 283 2.0 3.0 0.00 0.00 0.00 31 1017.4
20210621100333 69 283 2.0 3.0 0.00 0.00 0.00 31 1017.4
20210621100027 69 283 2.0 3.0 0.00 0.00 0.00 31 1017.4
20210621095835 69 283 0.0 3.0 0.00 0.00 0.00 32 1017.4
20210621095545 69 283 2.0 3.0 0.00 0.00 0.00 32 1017.4
20210621095400 69 283 1.0 3.0 0.00 0.00 0.00 32 1017.4
20210621095026 69 283 1.0 3.0 0.00 0.00 0.00 32 1017.4
20210621094836 69 283 1.0 3.0 0.00 0.00 0.00 32 1017.4
20210621094550 69 283 1.0 3.0 0.00 0.00 0.00 32 1017.4
20210621094318 69 283 0.0 3.0 0.00 0.00 0.00 32 1017.4
20210621094023 69 283 1.0 3.0 0.00 0.00 0.00 32 1017.4
20210621093833 69 283 1.0 3.0 0.00 0.00 0.00 32 1017.4
20210621093543 69 283 0.0 2.0 0.00 0.00 0.00 32 1017.4
20210621093335 69 283 0.0 3.0 0.00 0.00 0.00 32 1017.4
20210621093044 69 283 1.0 3.0 0.00 0.00 0.00 33 1017.4
20210621092915 69 283 1.0 3.0 0.00 0.00 0.00 33 1017.4
20210621092833 69 283 1.0 3.0 0.00 0.00 0.00 33 1017.4
20210621092525 69 283 2.0 3.0 0.00 0.00 0.00 33 1017.3
20210621092335 69 283 1.0 3.0 0.00 0.00 0.00 33 1017.3
20210621092027 69 283 2.0 3.0 0.00 0.00 0.00 33 1017.4
20210621091918 69 283 2.0 3.0 0.00 0.00 0.00 33 1017.4
20210621091835 69 283 2.0 3.0 0.00 0.00 0.00 33 1017.4
20210621091606 69 283 1.0 3.0 0.00 0.00 0.00 33 1017.3
20210621091524 69 283 1.0 3.0 0.00 0.00 0.00 33 1017.3
20210621091317 69 283 2.0 3.0 0.00 0.00 0.00 33 1017.4
20210621091040 69 283 2.0 3.0 0.00 0.00 0.00 33 1017.4
20210621090829 69 283 1.0 3.0 0.00 0.00 0.00 33 1017.4
20210621090522 69 283 0.0 3.0 0.00 0.00 0.00 33 1017.3
20210621090331 69 283 2.0 3.0 0.00 0.00 0.00 33 1017.3
20210621090023 69 283 1.0 4.0 0.00 0.00 0.00 33 1017.4
20210621085854 69 283 1.0 4.0 0.00 0.00 0.00 33 1017.4
20210621085527 69 283 1.0 4.0 0.00 0.00 0.00 33 1017.4
20210621085358 69 283 2.0 4.0 0.00 0.00 0.00 33 1017.4
20210621085025 69 283 1.0 4.0 0.00 0.00 0.00 33 1017.4
20210621084817 69 283 2.0 3.0 0.00 0.00 0.00 33 1017.4
20210621084525 69 283 1.0 3.0 0.00 0.00 0.00 33 1017.3
20210621084334 69 283 2.0 3.0 0.00 0.00 0.00 33 1017.4
20210621084021 69 283 1.0 3.0 0.00 0.00 0.00 33 1017.4
20210621083911 69 283 1.0 3.0 0.00 0.00 0.00 34 1017.3
20210621083604 69 283 1.0 3.0 0.00 0.00 0.00 34 1017.3
20210621083521 69 283 1.0 3.0 0.00 0.00 0.00 34 1017.3
20210621083331 69 283 1.0 3.0 0.00 0.00 0.00 34 1017.4
20210621083041 69 283 1.0 3.0 0.00 0.00 0.00 34 1017.3
20210621082833 69 283 1.0 4.0 0.00 0.00 0.00 34 1017.3
20210621082543 69 283 2.0 4.0 0.00 0.00 0.00 34 1017.3
20210621082332 69 283 1.0 4.0 0.00 0.00 0.00 35 1017.3
20210621082107 69 283 3.0 4.0 0.00 0.00 0.00 35 1017.3
20210621082024 69 283 3.0 4.0 0.00 0.00 0.00 35 1017.3
20210621081832 69 283 2.0 3.0 0.00 0.00 0.00 35 1017.3
20210621081526 69 283 1.0 3.0 0.00 0.00 0.00 35 1017.3
20210621081335 69 283 2.0 3.0 0.00 0.00 0.00 35 1017.3
20210621081017 69 283 2.0 4.0 0.00 0.00 0.00 35 1017.3
20210621080913 69 283 2.0 4.0 0.00 0.00 0.00 35 1017.3
20210621080831 69 283 2.0 4.0 0.00 0.00 0.00 35 1017.3
20210621080520 69 283 2.0 4.0 0.00 0.00 0.00 35 1017.3
20210621080330 69 283 2.0 4.0 0.00 0.00 0.00 36 1017.4
20210621080044 69 283 0.0 3.0 0.00 0.00 0.00 36 1017.4
20210621075833 69 283 2.0 3.0 0.00 0.00 0.00 36 1017.4
20210621075545 68 283 2.0 3.0 0.00 0.00 0.00 36 1017.4
20210621075334 68 283 2.0 3.0 0.00 0.00 0.00 36 1017.4
20210621075047 68 283 1.0 3.0 0.00 0.00 0.00 36 1017.5
20210621074816 69 283 2.0 3.0 0.00 0.00 0.00 36 1017.4
20210621074524 69 283 1.0 3.0 0.00 0.00 0.00 36 1017.4
20210621074317 69 283 1.0 3.0 0.00 0.00 0.00 36 1017.3
20210621074020 69 283 1.0 3.0 0.00 0.00 0.00 36 1017.4
20210621073848 69 283 2.0 3.0 0.00 0.00 0.00 36 1017.3
20210621073521 69 283 2.0 3.0 0.00 0.00 0.00 35 1017.3
20210621073329 69 283 1.0 3.0 0.00 0.00 0.00 35 1017.3
20210621073022 69 283 2.0 3.0 0.00 0.00 0.00 35 1017.4
20210621072830 69 283 1.0 3.0 0.00 0.00 0.00 35 1017.4
20210621072518 69 283 2.0 3.0 0.00 0.00 0.00 35 1017.4
20210621072331 69 283 1.0 3.0 0.00 0.00 0.00 35 1017.5
20210621072020 69 283 2.0 3.0 0.00 0.00 0.00 35 1017.4
20210621071850 69 283 2.0 3.0 0.00 0.00 0.00 35 1018.4
20210621071521 70 283 1.0 3.0 0.00 0.00 0.00 35 1018.4
20210621071330 70 283 1.0 3.0 0.00 0.00 0.00 34 1018.4
20210621070825 70 283 1.0 3.0 0.00 0.00 0.00 34 1018.4
20210621070539 70 283 2.0 4.0 0.00 0.00 0.00 34 1018.5
20210621070325 70 283 1.0 4.0 0.00 0.00 0.00 34 1018.4
20210621070034 70 283 1.0 4.0 0.00 0.00 0.00 34 1018.4
20210621065847 70 283 0.0 3.0 0.00 0.00 0.00 34 1018.5
20210621065534 71 283 1.0 3.0 0.00 0.00 0.00 33 1018.5
20210621065423 71 283 2.0 3.0 0.00 0.00 0.00 33 1018.5
20210621065333 71 283 2.0 3.0 0.00 0.00 0.00 33 1018.5
20210621065025 71 283 1.0 2.0 0.00 0.00 0.00 33 1018.4
20210621064835 71 283 0.0 1.0 0.00 0.00 0.00 33 1018.4
20210621064528 71 283 0.0 2.0 0.00 0.00 0.00 33 1018.5
20210621064317 71 283 0.0 2.0 0.00 0.00 0.00 33 1018.4
20210621064019 71 283 0.0 2.0 0.00 0.00 0.00 33 1018.5
20210621063832 71 283 0.0 2.0 0.00 0.00 0.00 33 1018.5
20210621063602 71 283 0.0 2.0 0.00 0.00 0.00 33 1018.5
20210621063411 71 283 0.0 2.0 0.00 0.00 0.00 33 1018.5
20210621063329 71 283 0.0 2.0 0.00 0.00 0.00 33 1018.5
20210621063103 71 283 0.0 2.0 0.00 0.00 0.00 33 1018.5
20210621063020 71 283 0.0 2.0 0.00 0.00 0.00 33 1018.5
20210621062851 71 283 0.0 2.0 0.00 0.00 0.00 33 1018.5
20210621062523 71 283 0.0 2.0 0.00 0.00 0.00 33 1018.5
20210621062331 71 283 0.0 3.0 0.00 0.00 0.00 33 1018.5
20210621062019 71 283 1.0 3.0 0.00 0.00 0.00 33 1018.5
20210621061832 71 283 0.0 3.0 0.00 0.00 0.00 33 1018.5
20210621061603 71 283 2.0 3.0 0.00 0.00 0.00 32 1018.5
20210621061330 71 283 1.0 4.0 0.00 0.00 0.00 32 1018.5
20210621061100 71 283 0.0 4.0 0.00 0.00 0.00 32 1018.5
20210621061017 71 283 0.0 4.0 0.00 0.00 0.00 32 1018.5
20210621060848 71 283 0.0 4.0 0.00 0.00 0.00 32 1018.5
20210621060603 71 283 3.0 4.0 0.00 0.00 0.00 32 1018.4
20210621060520 71 283 3.0 4.0 0.00 0.00 0.00 32 1018.4
20210621060329 71 283 2.0 4.0 0.00 0.00 0.00 32 1018.4
20210621060018 71 283 3.0 4.0 0.00 0.00 0.00 32 1018.5
20210621055832 71 283 1.0 3.0 0.00 0.00 0.00 32 1018.4
20210621055519 71 283 2.0 3.0 0.00 0.00 0.00 33 1018.5
20210621055329 71 283 0.0 2.0 0.00 0.00 0.00 33 1018.4
20210621055022 71 283 0.0 2.0 0.00 0.00 0.00 33 1018.5
20210621054852 72 283 0.0 2.0 0.00 0.00 0.00 33 1018.4
20210621054525 72 283 1.0 2.0 0.00 0.00 0.00 33 1018.4
20210621054333 72 283 0.0 2.0 0.00 0.00 0.00 33 1018.4
20210621054059 72 283 1.0 2.0 0.00 0.00 0.00 33 1018.4
20210621054018 72 283 1.0 2.0 0.00 0.00 0.00 33 1018.4
20210621053827 72 283 0.0 2.0 0.00 0.00 0.00 33 1018.4
20210621053516 72 283 1.0 2.0 0.00 0.00 0.00 33 1018.4
20210621053329 72 283 0.0 2.0 0.00 0.00 0.00 33 1018.4
20210621053100 72 283 0.0 4.0 0.00 0.00 0.00 33 1018.5
20210621052826 72 283 0.0 4.0 0.00 0.00 0.00 33 1018.3
20210621052519 72 283 0.0 4.0 0.00 0.00 0.00 33 1018.4
20210621052328 72 283 1.0 4.0 0.00 0.00 0.00 33 1018.4
20210621052041 72 283 2.0 4.0 0.00 0.00 0.00 33 1018.4
20210621051827 72 283 1.0 3.0 0.00 0.00 0.00 33 1018.4
20210621051537 72 283 2.0 3.0 0.00 0.00 0.00 33 1018.3
20210621051329 72 283 0.0 3.0 0.00 0.00 0.00 33 1018.3
20210621051030 72 283 1.0 3.0 0.00 0.00 0.00 33 1018.3
20210621050820 72 283 1.0 3.0 0.00 0.00 0.00 33 1018.3
20210621050533 72 283 1.0 3.0 0.00 0.00 0.00 33 1018.2
20210621050343 72 283 0.0 3.0 0.00 0.00 0.00 33 1018.3
20210621050056 72 283 0.0 2.0 0.00 0.00 0.00 33 1018.2
20210621045906 72 283 0.0 3.0 0.00 0.00 0.00 33 1018.2
20210621045823 72 283 0.0 3.0 0.00 0.00 0.00 33 1018.2
20210621045552 72 283 0.0 3.0 0.00 0.00 0.00 33 1018.1
20210621045325 73 283 1.0 3.0 0.00 0.00 0.00 33 1018.1
20210621045055 73 283 2.0 4.0 0.00 0.00 0.00 33 1018.1
20210621044823 73 283 0.0 4.0 0.00 0.00 0.00 33 1018.1
20210621044517 73 283 2.0 4.0 0.00 0.00 0.00 33 1018.1
20210621044324 73 283 1.0 4.0 0.00 0.00 0.00 33 1018.1
20210621044032 73 283 2.0 4.0 0.00 0.00 0.00 32 1018.1
20210621043841 73 283 2.0 5.0 0.00 0.00 0.00 32 1018.1
20210621043611 73 283 1.0 9.0 0.00 0.00 0.00 32 1018.0
20210621043528 73 283 1.0 9.0 0.00 0.00 0.00 32 1018.0
20210621043404 73 283 2.0 9.0 0.00 0.00 0.00 32 1018.0
20210621043322 73 283 2.0 9.0 0.00 0.00 0.00 32 1018.0
20210621043030 73 283 3.0 9.0 0.00 0.00 0.00 32 1018.0
20210621042845 73 282 3.0 9.0 0.00 0.00 0.00 32 1018.0
20210621042533 73 289 5.0 7.0 0.00 0.00 0.00 33 1018.0
20210621042404 73 291 3.0 5.0 0.00 0.00 0.00 33 1017.9
20210621042321 73 291 3.0 5.0 0.00 0.00 0.00 33 1017.9
20210621042033 73 291 1.0 4.0 0.00 0.00 0.00 33 1017.9
20210621041823 73 291 1.0 4.0 0.00 0.00 0.00 34 1017.9
20210621041535 73 291 1.0 3.0 0.00 0.00 0.00 34 1017.8
20210621041324 73 291 0.0 4.0 0.00 0.00 0.00 34 1017.9
20210621041110 74 291 1.0 4.0 0.00 0.00 0.00 33 1017.8
20210621041027 74 291 1.0 4.0 0.00 0.00 0.00 33 1017.8
20210621040821 74 291 0.0 4.0 0.00 0.00 0.00 33 1017.8
20210621040550 74 291 1.0 4.0 0.00 0.00 0.00 33 1017.8
20210621040318 74 291 2.0 4.0 0.00 0.00 0.00 33 1017.8
20210621040114 74 291 0.0 3.0 0.00 0.00 0.00 33 1017.7
20210621040032 74 291 0.0 3.0 0.00 0.00 0.00 33 1017.7
20210621035903 74 291 1.0 3.0 0.00 0.00 0.00 33 1017.7
20210621035533 74 291 1.0 4.0 0.00 0.00 0.00 33 1017.6
20210621035343 75 291 1.0 4.0 0.00 0.00 0.00 33 1017.6
20210621035032 75 291 1.0 4.0 0.00 0.00 0.00 33 1017.6
20210621034907 75 291 2.0 4.0 0.00 0.00 0.00 33 1017.5
20210621034824 75 291 2.0 4.0 0.00 0.00 0.00 33 1017.5
20210621034615 75 291 1.0 4.0 0.00 0.00 0.00 33 1017.5
20210621034532 75 291 1.0 4.0 0.00 0.00 0.00 33 1017.5
20210621034403 75 291 2.0 4.0 0.00 0.00 0.00 33 1017.5
20210621034026 76 290 2.0 9.0 0.00 0.00 0.00 33 1017.5
20210621033855 76 290 2.0 9.0 0.00 0.00 0.00 32 1017.4
20210621033527 76 283 0.0 9.0 0.00 0.00 0.00 32 1017.4
20210621033415 76 283 2.0 9.0 0.00 0.00 0.00 32 1017.3
20210621033333 76 283 2.0 9.0 0.00 0.00 0.00 32 1017.3
20210621033021 76 318 1.0 7.0 0.00 0.00 0.00 31 1017.3
20210621032834 76 318 3.0 8.0 0.00 0.00 0.00 31 1017.3
20210621032606 76 285 2.0 8.0 0.00 0.00 0.00 31 1017.3
20210621032317 76 286 4.0 8.0 0.00 0.00 0.00 31 1017.3
20210621032025 77 291 3.0 8.0 0.00 0.00 0.00 31 1017.2
20210621031833 77 267 2.0 6.0 0.00 0.00 0.00 31 1017.2
20210621031546 77 267 3.0 6.0 0.00 0.00 0.00 31 1017.1
20210621031336 77 290 3.0 5.0 0.00 0.00 0.00 31 1017.0
20210621031022 77 304 3.0 5.0 0.00 0.00 0.00 31 1017.1
20210621030832 77 284 1.0 9.0 0.00 0.00 0.00 31 1017.1
20210621030520 78 283 2.0 9.0 0.00 0.00 0.00 31 1017.1
20210621030353 78 284 2.0 9.0 0.00 0.00 0.00 31 1017.1
20210621030020 78 283 5.0 10.0 0.00 0.00 0.00 31 1017.1
20210621025829 78 323 2.0 10.0 0.00 0.00 0.00 31 1017.1
20210621025521 79 19 3.0 10.0 0.00 0.00 0.00 31 1017.1
20210621025350 79 279 5.0 10.0 0.00 0.00 0.00 31 1017.1
20210621025022 79 290 2.0 7.0 0.00 0.00 0.00 32 1017.0
20210621024852 79 277 2.0 7.0 0.00 0.00 0.00 31 1017.0
20210621024541 79 281 2.0 5.0 0.00 0.00 0.00 31 1017.0
20210621024355 79 281 2.0 10.0 0.00 0.00 0.00 30 1016.9
20210621024018 80 277 3.0 10.0 0.00 0.00 0.00 30 1016.9
20210621023847 80 277 3.0 12.0 0.00 0.00 0.00 30 1016.8
20210621023601 80 277 6.0 12.0 0.00 0.00 0.00 30 1016.9
20210621023519 80 277 6.0 12.0 0.00 0.00 0.00 30 1016.9
20210621023349 80 300 4.0 12.0 0.00 0.00 0.00 30 1016.8
20210621023021 80 299 6.0 12.0 0.00 0.00 0.00 30 1016.8
20210621022829 81 259 4.0 12.0 0.00 0.00 0.00 31 1016.7
20210621022600 81 297 4.0 9.0 0.00 0.00 0.00 32 1016.6
20210621022330 81 292 2.0 9.0 0.00 0.00 0.00 32 1016.6
20210621022102 81 298 2.0 9.0 0.00 0.00 0.00 31 1016.5
20210621022020 81 298 2.0 9.0 0.00 0.00 0.00 31 1016.5
20210621021828 81 298 4.0 9.0 0.00 0.00 0.00 31 1016.5
20210621021601 82 284 2.0 7.0 0.00 0.00 0.00 31 1016.5
20210621021350 82 284 4.0 9.0 0.00 0.00 0.00 31 1016.4
20210621021017 82 268 3.0 9.0 0.00 0.00 0.00 31 1016.5
20210621020908 82 292 2.0 9.0 0.00 0.00 0.00 31 1016.5
20210621020826 82 292 2.0 9.0 0.00 0.00 0.00 31 1016.5
20210621020518 83 287 5.0 15.0 0.00 0.00 0.00 31 1016.5
20210621020409 83 283 2.0 15.0 0.00 0.00 0.00 31 1016.5
20210621020327 83 283 2.0 15.0 0.00 0.00 0.00 31 1016.5
20210621020016 83 283 3.0 15.0 0.00 0.00 0.00 30 1016.5
20210621015830 83 277 4.0 15.0 0.00 0.00 0.00 30 1016.5
20210621015540 84 283 4.0 10.0 0.00 0.00 0.00 30 1016.5
20210621015327 84 273 3.0 8.0 0.00 0.00 0.00 31 1016.5
20210621015059 84 294 2.0 8.0 0.00 0.00 0.00 30 1016.5
20210621015017 84 294 2.0 8.0 0.00 0.00 0.00 30 1016.5
20210621014827 84 291 3.0 8.0 0.00 0.00 0.00 30 1016.5
20210621014602 84 279 5.0 8.0 0.00 0.00 0.00 29 1016.4
20210621014520 84 279 5.0 8.0 0.00 0.00 0.00 29 1016.4
20210621014411 84 315 3.0 6.0 0.00 0.00 0.00 29 1016.4
20210621014329 84 315 3.0 6.0 0.00 0.00 0.00 29 1016.4
20210621014051 85 290 2.0 7.0 0.00 0.00 0.00 28 1016.4
20210621013905 85 333 3.0 7.0 0.00 0.00 0.00 28 1016.3
20210621013531 85 294 2.0 7.0 0.00 0.00 0.00 28 1016.2
20210621013320 85 279 3.0 10.0 0.00 0.00 0.00 28 1016.3
20210621013032 85 261 3.0 13.0 0.00 0.00 0.00 28 1017.1
20210621012904 85 305 1.0 13.0 0.00 0.00 0.00 28 1017.1
20210621012821 85 305 1.0 13.0 0.00 0.00 0.00 28 1017.1
20210621012534 85 314 4.0 13.0 0.00 0.00 0.00 27 1017.1
20210621012323 85 277 7.0 14.0 0.00 0.00 0.00 27 1017.0
20210621012033 85 320 3.0 14.0 0.00 0.00 0.00 28 1017.1
20210621011826 85 268 7.0 14.0 0.00 0.00 0.00 27 1017.0
20210621011534 86 272 5.0 14.0 0.00 0.00 0.00 28 1017.0
20210621011324 86 275 4.0 11.0 0.00 0.00 0.00 28 1017.1
20210621011032 86 298 6.0 13.0 0.00 0.00 0.00 28 1017.1
20210621010820 86 304 5.0 13.0 0.00 0.00 0.00 28 1017.1
20210621010533 87 279 5.0 13.0 0.00 0.00 0.00 28 1017.1
20210621010322 87 269 6.0 13.0 0.00 0.00 0.00 29 1017.0
20210621010031 87 289 3.0 11.0 0.00 0.00 0.00 29 1017.0
20210621005845 87 326 3.0 11.0 0.00 0.00 0.00 29 1017.0
20210621005532 88 296 5.0 11.0 0.00 0.00 0.00 30 1017.0
20210621005346 88 311 6.0 11.0 0.00 0.00 0.00 30 1017.0
20210621005035 88 317 3.0 10.0 0.00 0.00 0.00 30 1017.0
20210621004824 88 325 3.0 13.0 0.00 0.00 0.00 30 1017.0
20210621004537 88 321 5.0 13.0 0.00 0.00 0.00 29 1017.1
20210621004326 88 341 5.0 13.0 0.00 0.00 0.00 29 1017.0
20210621004033 89 278 8.0 13.0 0.00 0.00 0.00 28 1017.1
20210621003842 89 321 4.0 11.0 0.00 0.00 0.00 28 1017.1
20210621003530 89 272 5.0 11.0 0.00 0.00 0.00 29 1017.1
20210621003323 89 313 5.0 11.0 0.00 0.00 0.00 28 1017.1
20210621003031 89 283 4.0 10.0 0.00 0.00 0.00 28 1017.1
20210621002841 89 268 4.0 14.0 0.00 0.00 0.00 28 1017.1
20210621002532 90 316 4.0 14.0 0.00 0.00 0.00 27 1017.1
20210621002342 90 283 5.0 14.0 0.00 0.00 0.00 26 1017.1
20210621002117 90 273 8.0 14.0 0.00 0.00 0.00 26 1017.1
20210621002035 90 273 8.0 14.0 0.00 0.00 0.00 26 1017.1
20210621001906 90 332 4.0 9.0 0.00 0.00 0.00 26 1017.1
20210621001824 90 332 4.0 9.0 0.00 0.00 0.00 26 1017.1
20210621001615 90 322 4.0 9.0 0.00 0.00 0.00 26 1017.1
20210621001532 90 322 4.0 9.0 0.00 0.00 0.00 26 1017.1
20210621001407 90 296 4.0 8.0 0.00 0.00 0.00 26 1017.2
20210621001325 90 296 4.0 8.0 0.00 0.00 0.00 26 1017.2
20210621001028 90 302 4.0 11.0 0.00 0.00 0.00 27 1017.2
20210621000838 90 288 5.0 11.0 0.00 0.00 0.00 26 1017.2
20210621000530 90 327 2.0 12.0 0.00 0.00 0.00 26 1017.2
20210621000403 90 333 3.0 12.0 0.00 0.00 0.00 26 1017.2
20210621000320 90 333 3.0 12.0 0.00 0.00 0.00 26 1017.2
20210621000033 91 301 5.0 15.0 0.00 0.00 0.00 26 1017.3
20210620235844 91 319 6.0 15.0 0.00 0.00 0.00 26 1017.3
20210620235558 91 327 5.0 15.0 0.00 0.00 0.00 26 1017.2
20210620235516 91 327 5.0 15.0 0.00 0.00 0.00 26 1017.2
20210620235325 91 297 6.0 15.0 0.00 0.00 0.00 26 1017.2
20210620235033 91 319 3.0 13.0 0.00 0.00 0.00 27 1017.3
20210620234826 91 281 3.0 13.0 0.00 0.00 0.00 26 1017.3
20210620234516 91 244 3.0 12.0 0.00 0.00 0.00 26 1017.3
20210620234324 91 298 3.0 13.0 0.00 0.00 0.00 26 1017.3
20210620234114 91 305 3.0 13.0 0.00 0.00 0.00 27 1017.3
20210620234032 91 305 3.0 13.0 0.00 0.00 0.00 27 1017.3
20210620233841 91 271 6.0 13.0 0.00 0.00 0.00 26 1017.2
20210620233533 91 273 8.0 13.0 0.00 0.00 0.00 26 1017.3
20210620233322 91 292 8.0 12.0 0.00 0.00 0.00 26 1017.3
20210620233052 91 250 8.0 16.0 0.00 0.00 0.00 27 1017.3
20210620232824 91 222 8.0 16.0 0.00 0.00 0.00 26 1017.3
20210620232555 91 290 6.0 16.0 0.00 0.00 0.00 26 1017.3
20210620232344 91 248 11.0 16.0 0.00 0.00 0.00 26 1017.4
20210620232017 91 310 5.0 14.0 0.00 0.00 0.00 26 1017.3
20210620231821 91 279 4.0 14.0 0.00 0.00 0.00 26 1017.3
20210620231533 91 232 9.0 14.0 0.00 0.00 0.00 26 1017.4
20210620231343 91 234 8.0 14.0 0.00 0.00 0.00 25 1017.4
20210620231026 92 218 10.0 14.0 0.00 0.00 0.00 24 1017.4
20210620230818 92 246 9.0 13.0 0.00 0.00 0.00 23 1017.4
20210620230528 92 269 8.0 12.0 0.00 0.00 0.00 24 1017.5
20210620230316 92 256 6.0 13.0 0.00 0.00 0.00 24 1017.3
20210620230030 91 284 6.0 14.0 0.00 0.00 0.00 24 1017.3
20210620225819 91 229 6.0 17.0 0.00 0.00 0.00 25 1017.3
20210620225553 92 257 9.0 17.0 0.00 0.00 0.00 23 1017.4
20210620225341 92 287 8.0 17.0 0.00 0.00 0.00 23 1017.3
20210620225059 92 304 10.0 13.0 0.00 0.00 0.00 23 1017.3
20210620224851 92 275 6.0 12.0 0.00 0.00 0.00 24 1017.3
20210620224640 93 217 6.0 14.0 0.00 0.00 0.00 22 1017.3
20210620224534 93 217 6.0 14.0 0.00 0.00 0.00 22 1017.3
20210620224447 93 259 9.0 14.0 0.00 0.00 0.00 23 1017.3
20210620224349 93 259 9.0 14.0 0.00 0.00 0.00 23 1017.3
20210620224032 93 272 4.0 14.0 0.00 0.00 0.00 24 1017.4
20210620223821 93 275 8.0 16.0 0.00 0.00 0.00 24 1017.4
20210620223550 93 280 6.0 16.0 0.00 0.00 0.00 25 1017.4
20210620223343 93 236 6.0 17.0 0.00 0.00 0.00 23 1017.4
20210620223030 93 236 10.0 17.0 0.00 0.00 0.00 22 1017.5
20210620222824 93 276 6.0 17.0 0.00 0.00 0.00 22 1017.6
20210620222533 93 248 10.0 17.0 0.00 0.00 0.00 23 1017.5
20210620222321 93 259 7.0 17.0 0.00 0.00 0.00 22 1017.5
20210620222034 93 260 10.0 17.0 0.00 0.00 0.00 23 1017.6
20210620221844 93 244 8.0 13.0 0.00 0.00 0.00 20 1017.5
20210620221558 93 246 5.0 13.0 0.00 0.00 0.00 19 1017.5
20210620221515 93 246 5.0 13.0 0.00 0.00 0.00 19 1017.5
20210620221325 93 271 5.0 13.0 0.00 0.00 0.00 21 1017.5
20210620221047 93 244 8.0 13.0 0.00 0.00 0.00 21 1017.5
20210620220818 94 298 9.0 16.0 0.00 0.00 0.00 21 1017.6
20210620220609 94 248 7.0 16.0 0.00 0.00 0.00 21 1017.7
20210620220527 94 248 7.0 16.0 0.00 0.00 0.00 21 1017.7
20210620220315 94 270 6.0 16.0 0.00 0.00 0.00 21 1017.5
20210620220029 94 238 10.0 16.0 0.00 0.00 0.00 20 1017.7
20210620215818 94 250 8.0 14.0 0.00 0.00 0.00 21 1017.5
20210620215612 94 257 6.0 14.0 0.00 0.00 0.00 19 1017.6
20210620215531 94 257 6.0 14.0 0.00 0.00 0.00 19 1017.6
20210620215341 94 248 6.0 14.0 0.00 0.00 0.00 20 1017.6
20210620215111 94 218 9.0 14.0 0.00 0.00 0.00 20 1017.6
20210620215029 94 218 9.0 14.0 0.00 0.00 0.00 20 1017.6
20210620214823 94 237 5.0 14.0 0.00 0.00 0.00 21 1017.5
20210620214614 94 234 7.0 12.0 0.00 0.00 0.00 19 1017.7
20210620214403 93 273 8.0 12.0 0.00 0.00 0.00 19 1017.6
20210620214321 93 273 8.0 12.0 0.00 0.00 0.00 19 1017.6
20210620214111 93 288 7.0 15.0 0.00 0.00 0.00 21 1017.7
20210620214029 93 288 7.0 15.0 0.00 0.00 0.00 21 1017.7
20210620213818 93 242 6.0 15.0 0.00 0.00 0.00 20 1017.6
20210620213529 93 252 8.0 15.0 0.00 0.00 0.00 20 1017.6
20210620213400 94 288 8.0 15.0 0.00 0.00 0.00 19 1017.6
20210620213318 94 288 8.0 15.0 0.00 0.00 0.00 19 1017.6
20210620213109 94 221 10.0 14.0 0.00 0.00 0.00 19 1017.7
20210620213027 94 221 10.0 14.0 0.00 0.00 0.00 19 1017.7
20210620212821 94 254 4.0 12.0 0.00 0.00 0.00 19 1017.7
20210620212530 94 260 7.0 13.0 0.00 0.00 0.00 18 1017.7
20210620212343 94 260 7.0 13.0 0.00 0.00 0.00 19 1017.8
20210620212053 94 295 4.0 13.0 0.00 0.00 0.00 19 1017.7
20210620211820 94 286 7.0 13.0 0.00 0.00 0.00 19 1017.8
20210620211532 93 279 7.0 12.0 0.00 0.00 0.00 19 1017.7
20210620211321 93 268 6.0 12.0 0.00 0.00 0.00 18 1017.7
20210620211028 93 289 4.0 13.0 0.00 0.00 0.00 19 1017.7
20210620210838 93 265 8.0 13.0 0.00 0.00 0.00 18 1017.9
20210620210548 93 270 7.0 18.0 0.00 0.00 0.00 19 1017.9
20210620210321 93 279 6.0 18.0 0.00 0.00 0.00 19 1017.8
20210620210050 93 263 8.0 18.0 0.00 0.00 0.00 19 1017.9
20210620205818 93 288 7.0 16.0 0.00 0.00 0.00 19 1017.9
20210620205552 93 242 6.0 17.0 0.00 0.00 0.00 19 1017.9
20210620205342 93 271 6.0 17.0 0.00 0.00 0.00 19 1017.8
20210620205033 93 217 10.0 17.0 0.00 0.00 0.00 19 1018.0
20210620204844 93 324 10.0 17.0 0.00 0.00 0.00 19 1017.9
20210620204553 93 287 10.0 15.0 0.00 0.00 0.00 18 1018.1
20210620204326 93 271 10.0 15.0 0.00 0.00 0.00 18 1018.1
20210620204027 93 304 8.0 20.0 0.00 0.00 0.00 18 1018.0
20210620203816 93 280 6.0 20.0 0.00 0.00 0.00 19 1018.1
20210620203529 92 291 3.0 20.0 0.00 0.00 0.00 19 1018.0
20210620203400 92 249 10.0 20.0 0.00 0.00 0.00 18 1018.1
20210620203317 92 249 10.0 20.0 0.00 0.00 0.00 18 1018.1
20210620203050 92 277 8.0 17.0 0.00 0.00 0.00 18 1017.9
20210620202818 92 261 8.0 17.0 0.00 0.00 0.00 18 1018.3
20210620202609 93 285 13.0 17.0 0.00 0.00 0.00 19 1018.1
20210620202527 93 285 13.0 17.0 0.00 0.00 0.00 19 1018.1
20210620202319 92 335 6.0 17.0 0.00 0.00 0.00 18 1018.1
20210620202111 93 241 4.0 17.0 0.00 0.00 0.00 18 1018.2
20210620201905 93 298 9.0 17.0 0.00 0.00 0.00 18 1018.2
20210620201822 93 298 9.0 17.0 0.00 0.00 0.00 18 1018.2
20210620201530 93 276 9.0 18.0 0.00 0.00 0.00 18 1018.1
20210620201320 93 327 7.0 18.0 0.00 0.00 0.00 17 1018.2
20210620201048 93 238 7.0 18.0 0.00 0.00 0.00 18 1018.1
20210620200837 93 298 8.0 18.0 0.00 0.00 0.00 18 1018.2
20210620200549 93 279 6.0 16.0 0.00 0.00 0.00 18 1018.0
20210620200317 93 261 7.0 16.0 0.00 0.00 0.00 18 1018.1
20210620200025 94 267 5.0 15.0 0.00 0.00 0.00 18 1018.0
20210620195819 94 255 8.0 22.0 0.00 0.00 0.00 19 1018.1
20210620195528 94 267 6.0 22.0 0.00 0.00 0.00 18 1018.1
20210620195318 94 241 6.0 22.0 0.00 0.00 0.00 19 1018.2
20210620195114 94 232 13.0 22.0 0.00 0.00 0.00 18 1018.1
20210620195031 94 232 13.0 22.0 0.00 0.00 0.00 18 1018.1
20210620194819 94 232 12.0 17.0 0.00 0.00 0.00 18 1018.0
20210620194553 94 222 9.0 13.0 0.00 0.00 0.00 18 1018.1
20210620194403 94 211 5.0 11.0 0.00 0.00 0.00 19 1018.0
20210620194321 94 211 5.0 11.0 0.00 0.00 0.00 19 1018.0
20210620194021 94 290 7.0 15.0 0.00 0.00 0.00 19 1018.0
20210620193855 94 288 4.0 15.0 0.00 0.00 0.00 19 1017.9
20210620193523 94 219 7.0 15.0 0.00 0.00 0.00 19 1018.0